Location: Newark
(50.0336°N, 22.0047°E)
Time: 11:33:35
(UTC+00:00)

N. Korean satellite - Pass Details

Date: 28 January 2020
Orbit: 456 x 505 km, 97.2° (Epoch: 23 February)

Event Time Altitude Azimuth Distance (km) Brightness Sun altitude
Rises 04:24:05 0° 14° (NNE) 2,545 10.3 -17.2°
Reaches altitude 10° 04:26:09 10° 16° (NNE) 1,669 9.4 -16.9°
Maximum altitude 04:29:44 77° 102° (ESE) 506 6.7 -16.3°
Drops below altitude 10° 04:33:22 10° 189° (S) 1,683 9.3 -15.8°
Sets 04:35:26 0° 191° (S) 2,567 10.2 -15.4°
